Wind_Speed
19 19 19 18 18 18 18 17 17 15 14 13 13 13 13 14 15 15 14 13 13 13 13 14 13 13 14 14 14 14 14 14 13 13 13 13 13 12 12 12 12 12 13 13
20 20 20 19 19 19 19 18 18 17 16 15 14 14 14 15 16 16 15 15 15 15 14 15 15 14 15 15 15 15 14 14 14 13 13 13 13 13 13 13 13 13 14 15
21 20 21 20 19 20 19 18 18 18 17 16 15 15 16 16 16 16 16 15 15 15 15 15 16 16 16 16 15 15 15 14 14 14 14 13 13 13 13 13 14 14 15 15
22 22 22 19 19 19 19 18 18 17 17 17 17 17 17 18 18 16 16 16 16 15 15 16 16 17 17 17 16 15 15 15 14 14 14 14 13 13 14 14 14 15 15 16
23 22 20 18 18 19 19 18 17 17 18 18 18 18 18 18 18 17 17 17 17 17 17 17 18 18 18 18 17 16 16 15 15 15 15 15 15 15 15 15 16 16 16 16
23 24 22 19 20 20 20 19 18 18 18 18 18 19 18 19 18 18 18 18 18 19 19 19 19 19 19 19 19 18 17 16 16 16 16 17 17 17 17 18 18 18 17 18
24 24 23 22 21 21 21 20 20 19 19 19 19 20 20 20 20 20 20 20 20 20 20 20 20 20 20 20 20 19 18 17 17 17 18 18 19 19 20 19 19 19 19 20
25 25 24 24 23 23 23 22 21 21 21 21 21 21 21 21 21 22 22 22 22 21 21 21 21 21 21 21 21 20 19 19 19 19 20 20 20 20 20 20 20 21 21 21
25 25 25 25 24 24 25 24 23 22 23 23 23 23 23 23 24 23 23 23 23 23 22 22 22 22 22 22 21 21 21 21 21 21 22 21 21 22 22 21 21 22 23 23
26 25 26 26 26 25 26 26 25 24 24 25 25 25 25 25 25 25 25 25 24 24 23 22 22 23 22 23 22 22 22 22 23 23 22 22 23 23 23 23 23 24 24 25
27 27 27 27 28 28 28 28 28 27 26 27 26 26 26 26 26 25 25 26 25 25 25 24 23 23 23 23 24 23 24 24 24 24 23 24 24 24 24 24 25 26 26 26
28 28 29 29 28 29 29 29 29 28 28 28 28 28 28 27 27 26 26 26 25 25 25 24 24 24 24 24 25 25 25 25 25 25 25 26 26 26 26 26 26 27 27 28
30 30 31 30 30 30 30 30 30 30 29 29 29 29 29 29 28 27 27 26 25 25 26 26 25 25 26 26 26 26 26 26 26 26 27 27 28 28 28 28 28 29 29 29
31 32 32 32 32 32 32 32 31 31 30 30 30 30 29 29 29 28 27 27 26 26 26 26 26 27 28 28 28 28 28 28 28 28 29 29 29 30 30 30 30 30 30 31
31 33 32 32 32 32 32 32 32 31 30 30 30 30 29 29 29 28 28 27 27 27 27 27 28 28 28 29 29 29 29 30 30 30 31 31 31 31 31 31 31 32 32 32
31 32 32 32 32 32 32 32 32 32 32 31 31 30 30 29 29 28 28 28 28 28 29 29 30 30 29 29 30 30 31 31 32 32 32 32 32 32 32 33 33 33 33 33
32 32 32 32 32 31 31 31 31 32 32 32 31 31 31 30 30 29 29 29 29 30 30 31 31 31 31 32 31 31 32 32 32 33 33 33 33 33 33 33 33 33 33 33
33 32 31 32 32 32 31 31 31 31 31 31 32 32 32 32 32 32 32 31 31 32 32 32 32 32 31 32 32 32 32 33 33 33 33 34 34 33 34 34 33 33 33 32
33 32 32 32 32 32 31 31 31 31 32 32 32 32 33 33 33 33 33 33 33 33 33 34 34 34 35 35 35 35 35 35 34 35 35 36 36 36 36 36 35 34 34 34
33 32 32 32 33 33 33 32 32 32 32 33 33 33 33 33 33 33 33 34 35 36 36 37 37 37 37 37 38 37 37 36 36 37 37 37 38 38 37 37 36 36 35 35
33 33 33 33 33 33 33 33 33 33 33 33 34 33 33 34 34 35 35 36 37 37 38 38 38 37 37 38 38 38 38 38 38 38 38 38 38 38 38 37 36 36 36 36
33 33 33 33 33 33 33 33 33 33 33 33 33 33 34 34 35 36 36 37 37 38 38 38 38 38 39 39 39 38 39 39 40 40 39 39 39 38 38 38 37 37 37 37
34 33 33 33 33 32 32 32 32 33 33 33 34 33 34 34 35 36 36 37 38 39 39 39 39 39 40 40 39 39 40 40 40 40 40 39 39 38 38 38 38 38 37 37
33 33 32 32 32 32 31 31 32 32 33 33 34 34 34 35 36 36 36 37 38 39 39 39 39 39 40 40 40 40 40 41 40 40 40 40 40 39 39 38 38 39 38 38
33 33 33 33 33 33 33 33 34 34 34 35 35 36 36 37 37 37 37 38 38 39 39 39 39 39 40 40 41 41 41 41 41 40 40 40 40 40 40 39 39 40 40 39
33 33 34 34 35 35 35 35 35 36 36 37 37 37 38 38 39 39 39 39 39 39 39 39 39 39 39 40 41 41 41 41 40 40 40 40 40 40 41 40 40 40 40 40
33 34 34 35 36 36 36 36 36 37 38 38 39 39 39 40 40 40 40 40 40 40 40 40 40 40 40 40 40 40 41 40 40 40 40 40 40 40 40 40 40 41 41 41
Wind_Direction
269 270 270 269 270 271 271 274 276 278 276 277 279 280 280 279 280 283 284 283 285 287 290 289 290 294 296 298 297 295 295 298 296 291 289 287 283 281 280 280 281 280 277 273
269 270 271 270 269 269 269 273 275 275 275 274 274 277 279 280 281 281 282 283 284 284 286 289 290 292 295 294 293 292 293 294 295 291 288 286 285 283 280 280 281 281 278 273
270 271 271 270 269 269 269 272 274 274 274 272 273 275 277 279 280 279 279 281 282 282 284 286 286 287 290 294 291 290 291 291 292 290 288 288 287 286 281 279 280 280 278 276
270 270 271 273 269 269 269 269 271 271 271 273 274 275 277 279 279 279 280 281 281 281 283 286 286 287 288 288 292 289 288 288 289 289 290 290 285 282 281 281 282 282 279 277
267 269 271 271 270 269 270 269 269 269 271 272 273 275 276 278 278 279 280 281 282 282 282 285 288 288 287 287 288 289 289 288 288 288 288 288 286 282 281 281 282 282 280 278
267 268 268 269 269 269 269 268 267 269 270 272 273 274 275 277 277 277 279 281 281 282 283 284 287 287 286 285 285 287 286 285 284 284 285 286 286 284 281 279 279 279 278 278
266 266 267 268 268 268 267 268 268 269 270 272 273 274 276 276 276 277 277 279 280 281 283 284 284 285 285 285 284 284 283 282 283 283 284 286 286 284 281 279 279 277 277 278
262 263 264 266 267 266 267 268 269 270 270 271 273 273 274 275 274 275 276 278 279 279 281 282 284 285 286 285 285 283 282 283 284 285 286 287 285 284 281 279 278 277 278 278
259 261 262 263 264 265 266 268 269 269 269 271 273 274 274 275 274 274 277 278 279 278 278 281 284 286 284 283 282 283 281 282 284 286 286 285 284 284 282 280 279 278 279 278
259 259 260 262 264 265 267 269 269 269 270 272 273 273 274 276 277 276 277 278 277 277 278 280 282 283 282 282 282 282 282 283 284 285 286 284 283 284 283 281 280 279 279 278
260 259 258 259 263 266 267 268 269 270 271 273 274 274 274 274 275 275 275 275 276 277 277 278 280 281 281 282 283 282 282 282 283 285 285 284 283 283 283 283 281 280 279 278
261 260 259 259 261 264 267 268 269 270 271 272 273 273 274 275 276 276 276 275 274 276 277 278 279 279 280 281 282 283 282 281 282 284 284 284 282 282 282 283 282 281 279 279
261 262 262 262 262 264 265 265 267 268 270 271 272 274 275 275 275 276 276 275 274 275 276 277 278 280 280 282 283 283 283 283 283 283 283 283 281 280 280 281 281 281 280 280
260 262 262 262 263 264 265 266 267 267 269 270 271 273 274 274 274 274 275 274 272 273 274 275 278 280 282 283 283 283 284 284 283 283 283 282 282 281 280 280 280 281 280 280
261 262 262 262 262 264 265 266 267 268 269 269 269 271 272 273 273 273 273 272 272 273 274 276 278 280 281 282 283 284 284 284 283 283 283 282 282 283 281 280 281 281 282 282
263 264 264 264 263 263 263 265 266 268 269 269 269 270 271 272 272 272 272 272 273 274 275 276 278 279 280 282 283 284 284 284 284 284 284 283 282 283 283 282 282 282 282 283
263 265 266 265 264 265 264 265 266 268 268 268 269 270 271 272 272 272 272 273 274 274 276 277 278 279 280 282 285 285 284 284 284 284 284 284 283 283 283 283 284 284 284 283
263 265 266 266 265 264 264 265 266 268 268 267 267 268 270 271 272 273 274 274 275 275 276 277 278 279 281 283 284 285 286 286 285 284 284 284 283 283 283 283 284 284 284 283
264 265 266 267 266 265 264 265 266 267 268 267 267 268 269 271 271 273 274 274 276 276 277 277 279 280 281 283 284 285 285 286 286 285 284 284 283 283 283 282 282 283 283 282
263 265 266 267 266 265 265 267 267 268 269 268 268 269 270 271 272 273 274 275 276 277 278 279 279 280 281 282 283 284 285 285 285 285 285 285 284 283 282 282 281 281 280 280
263 264 266 266 266 265 264 266 268 268 269 268 268 268 270 272 273 274 276 277 278 279 280 280 280 281 281 282 282 283 283 284 284 284 284 285 285 284 282 281 281 280 279 279
263 263 264 265 265 265 265 267 268 268 268 269 269 269 270 272 273 275 276 278 278 279 280 280 280 280 280 282 282 282 282 282 283 283 283 283 283 283 282 281 280 279 279 279
263 263 264 265 265 265 266 267 268 268 269 270 270 271 272 273 274 276 277 278 280 280 280 280 280 280 280 281 282 282 282 282 282 282 282 282 282 282 282 281 280 279 279 280
263 263 264 265 266 265 266 268 270 271 271 271 272 273 274 276 276 277 279 280 281 281 281 281 281 281 281 281 280 281 282 282 281 281 282 281 281 282 282 281 281 279 279 280
264 264 264 264 265 266 267 269 271 271 272 273 274 275 276 278 279 279 281 281 281 282 282 282 282 282 282 281 281 282 282 282 281 280 280 280 280 280 280 280 280 279 278 279
263 264 264 264 264 266 268 269 271 272 272 273 275 276 277 279 280 282 283 283 283 283 283 282 282 282 282 282 283 282 282 282 281 281 280 279 279 279 279 279 279 278 277 277
264 264 264 264 265 266 268 270 271 272 273 274 276 276 277 279 280 281 282 283 283 283 282 282 282 282 283 284 284 283 282 282 281 280 280 279 279 278 278 277 278 277 276 277
Height
5845 5845 5845 5845 5845 5845 5844 5844 5844 5845 5845 5845 5845 5844 5843 5842 5842 5841 5840 5839 5838 5837 5836 5836 5835 5834 5833 5832 5830 5829 5828 5826 5825 5824 5823 5822 5821 5821 5821 5821 5821 5821 5821 5821
5840 5840 5839 5840 5840 5839 5839 5840 5840 5840 5841 5841 5841 5840 5839 5838 5837 5837 5836 5835 5834 5833 5833 5832 5831 5830 5829 5828 5826 5825 5824 5822 5821 5820 5819 5818 5817 5817 5817 5817 5817 5817 5816 5816
5834 5834 5834 5834 5835 5834 5834 5835 5835 5835 5837 5836 5836 5835 5834 5834 5833 5832 5831 5831 5830 5829 5828 5827 5826 5825 5824 5823 5822 5821 5820 5819 5817 5816 5815 5814 5814 5813 5813 5813 5813 5812 5812 5811
5828 5829 5828 5832 5829 5829 5829 5830 5830 5830 5831 5831 5831 5830 5830 5829 5828 5827 5827 5826 5825 5825 5824 5823 5822 5820 5819 5818 5817 5816 5815 5815 5813 5812 5811 5810 5809 5809 5809 5808 5808 5807 5807 5806
5822 5822 5823 5825 5824 5824 5825 5825 5826 5826 5826 5826 5825 5825 5825 5824 5823 5822 5822 5821 5820 5819 5819 5818 5816 5815 5814 5813 5812 5811 5811 5810 5809 5808 5807 5806 5805 5804 5804 5803 5803 5802 5802 5801
5816 5816 5817 5820 5820 5819 5820 5821 5821 5821 5821 5821 5820 5820 5820 5819 5818 5817 5816 5816 5815 5814 5813 5812 5811 5810 5809 5808 5807 5806 5805 5805 5804 5803 5802 5801 5800 5799 5798 5798 5797 5797 5796 5796
5810 5810 5812 5813 5813 5814 5816 5817 5816 5815 5815 5815 5815 5815 5814 5813 5812 5811 5810 5810 5809 5808 5807 5806 5805 5804 5803 5802 5801 5800 5800 5799 5798 5797 5796 5795 5794 5793 5792 5791 5791 5790 5790 5790
5804 5804 5808 5807 5807 5808 5809 5809 5809 5809 5809 5809 5809 5808 5807 5807 5806 5805 5804 5803 5802 5802 5801 5800 5799 5798 5797 5796 5795 5794 5794 5793 5793 5791 5790 5789 5788 5786 5785 5784 5784 5784 5783 5783
5798 5800 5799 5799 5800 5801 5801 5802 5802 5802 5802 5802 5802 5801 5800 5800 5799 5798 5797 5797 5795 5795 5794 5793 5792 5791 5790 5790 5789 5788 5788 5787 5786 5785 5784 5782 5781 5780 5778 5777 5777 5776 5776 5776
5790 5792 5792 5792 5793 5793 5794 5795 5795 5795 5795 5795 5794 5794 5793 5792 5791 5791 5790 5789 5788 5787 5787 5787 5786 5785 5784 5783 5782 5782 5781 5780 5779 5778 5777 5775 5774 5773 5772 5771 5770 5769 5768 5768
5782 5784 5784 5785 5785 5786 5786 5787 5787 5787 5787 5787 5786 5786 5785 5785 5784 5783 5782 5781 5781 5780 5780 5780 5779 5779 5778 5777 5776 5775 5774 5774 5772 5771 5770 5769 5767 5766 5765 5764 5762 5762 5761 5760
5774 5775 5776 5777 5778 5778 5778 5779 5779 5779 5779 5778 5778 5777 5777 5776 5776 5775 5774 5773 5773 5772 5772 5772 5772 5772 5771 5770 5769 5768 5767 5766 5765 5764 5762 5761 5760 5758 5757 5756 5755 5754 5753 5752
5765 5766 5767 5768 5769 5769 5770 5770 5770 5770 5770 5770 5770 5769 5768 5768 5767 5766 5766 5766 5765 5765 5765 5765 5765 5764 5764 5763 5762 5760 5759 5758 5757 5755 5754 5753 5752 5750 5749 5748 5746 5745 5744 5743
5755 5756 5757 5759 5760 5760 5760 5761 5761 5761 5762 5761 5761 5760 5760 5759 5758 5758 5758 5758 5757 5757 5757 5757 5757 5756 5755 5754 5753 5752 5751 5749 5748 5747 5745 5744 5743 5741 5740 5739 5738 5736 5735 5734
5746 5747 5748 5749 5750 5751 5751 5752 5752 5752 5752 5752 5752 5751 5751 5750 5750 5749 5749 5749 5750 5750 5749 5749 5748 5748 5746 5745 5744 5743 5742 5740 5739 5737 5736 5735 5733 5732 5730 5729 5728 5726 5725 5724
5738 5738 5739 5739 5740 5741 5742 5742 5742 5743 5743 5743 5743 5742 5742 5741 5741 5741 5741 5741 5741 5741 5741 5740 5740 5739 5737 5736 5735 5734 5732 5731 5729 5728 5726 5724 5723 5722 5720 5719 5717 5716 5715 5713
5729 5729 5730 5730 5731 5732 5732 5732 5733 5733 5733 5733 5733 5733 5733 5733 5733 5732 5732 5732 5732 5732 5731 5731 5730 5729 5728 5727 5725 5724 5722 5721 5719 5717 5716 5714 5713 5711 5710 5709 5707 5706 5704 5702
5719 5720 5720 5721 5722 5722 5723 5723 5723 5723 5724 5724 5724 5724 5724 5724 5723 5723 5723 5722 5722 5722 5722 5721 5720 5719 5718 5717 5715 5714 5712 5710 5709 5707 5706 5704 5703 5701 5700 5698 5697 5695 5694 5693
5709 5710 5710 5711 5711 5712 5713 5714 5714 5714 5714 5714 5714 5714 5714 5713 5713 5713 5713 5712 5712 5712 5712 5710 5709 5709 5707 5706 5704 5703 5701 5700 5698 5696 5695 5693 5692 5690 5689 5687 5686 5685 5683 5682
5699 5700 5700 5701 5701 5702 5703 5704 5704 5704 5704 5704 5703 5703 5703 5703 5703 5703 5702 5702 5701 5701 5700 5699 5698 5697 5696 5694 5693 5691 5690 5688 5687 5685 5684 5682 5681 5679 5678 5676 5675 5674 5672 5671
5689 5690 5690 5691 5691 5692 5692 5693 5693 5693 5693 5693 5693 5693 5693 5693 5692 5692 5691 5691 5690 5688 5687 5686 5686 5685 5683 5682 5680 5679 5678 5676 5675 5674 5672 5671 5669 5667 5666 5664 5663 5662 5661 5660
5679 5680 5680 5680 5681 5681 5682 5682 5682 5682 5682 5682 5682 5682 5682 5681 5681 5681 5680 5679 5678 5676 5675 5674 5673 5672 5671 5669 5668 5667 5665 5664 5663 5661 5660 5658 5657 5655 5654 5653 5651 5650 5649 5648
5668 5669 5670 5670 5671 5671 5671 5672 5672 5672 5672 5671 5671 5671 5671 5670 5670 5669 5668 5667 5665 5664 5663 5661 5660 5659 5657 5656 5655 5654 5652 5651 5650 5648 5647 5646 5644 5643 5642 5641 5639 5638 5637 5636
5658 5659 5659 5660 5660 5661 5661 5662 5661 5661 5661 5661 5661 5660 5659 5659 5658 5657 5656 5654 5653 5651 5650 5649 5647 5646 5644 5643 5642 5641 5639 5638 5637 5635 5634 5633 5632 5630 5629 5628 5627 5626 5625 5624
5648 5649 5649 5649 5650 5650 5651 5651 5651 5651 5650 5650 5649 5649 5648 5647 5646 5645 5643 5642 5640 5638 5637 5636 5634 5633 5631 5630 5628 5627 5626 5624 5623 5622 5621 5620 5619 5617 5616 5615 5614 5613 5612 5611
5638 5638 5638 5639 5639 5640 5640 5640 5640 5640 5639 5639 5638 5637 5636 5635 5634 5632 5631 5629 5627 5626 5624 5623 5621 5620 5618 5617 5615 5614 5612 5611 5610 5608 5607 5606 5605 5604 5603 5602 5601 5600 5598 5597
5627 5628 5628 5628 5628 5628 5629 5628 5628 5628 5627 5627 5626 5625 5624 5623 5621 5620 5618 5616 5614 5613 5611 5610 5608 5607 5605 5604 5602 5600 5599 5597 5596 5595 5594 5592 5591 5590 5589 5588 5587 5586 5585 5584